Fort Leonard Wood, MO

12:18 PM CDT on April 24, 2017 (GMT -0500)
Waynesville Regional At Forney Field

Weather History for KTBN - January, 2012

Change the Weather History Date:

Wednesday, January 18, 2012

  Actual Average Record
Temperature  
Mean Temperature 24 °F -  
Max Temperature 37 °F 39 °F 61 °F (2015)
Min Temperature 10 °F 25 °F 0 °F (2016)
Degree Days  
Heating Degree Days 42    
Moisture  
Dew Point 13 °F    
Average Humidity 63    
Maximum Humidity 95    
Minimum Humidity 31    
Precipitation  
Precipitation 0.00 in - - ()
Sea Level Pressure  
Sea Level Pressure 30.19 in    
Wind  
Wind Speed 4 mph (South)    
Max Wind Speed 12 mph    
Max Gust Speed 17 mph    
Visibility 10 miles    
Events      
Averages and records for this station are not official NWS values.
T = Trace of Precipitation, MM = Missing Value Source: NWS Daily Summary

Daily Weather History Graph

Daily Weather History Graph

Search for Another Location

Airport or City:

Trip Planner

Search our weather history database for the weather conditions in past years. The results will help you decide how hot, cold, wet, or windy it might be!

Date:

Astronomy

Jan. 18, 2012 Rise Set
Actual Time 7:21 AM CST 5:16 PM CST
Civil Twilight 6:53 AM CST 5:44 PM CST
Nautical Twilight 6:21 AM CST 6:16 PM CST
Astronomical Twilight 5:49 AM CST 6:48 PM CST
Moon 2:51 AM CST (1/18) 12:56 PM CST (1/18)
Length of Visible Light 10h 51m
Length of Day
9h 54m
Waning Crescent, 24% of the Moon is Illuminated
Jan 18
Waning Crescent
Jan 23
New
Jan 30
First Quarter
Feb 7
Full
Feb 14
Last Quarter

Hourly Weather History & Observations

Time (CST) Temp. Windchill Dew Point Humidity Pressure Visibility Wind Dir Wind Speed Gust Speed Precip Events Conditions
12:55 AM 17.4 °F 10.4 °F 14.0 °F 86% 30.39 in 10.0 mi NNW 4.6 mph - N/A   Clear
1:55 AM 15.3 °F - 13.3 °F 92% 30.37 in 10.0 mi Calm Calm - N/A   Clear
2:55 AM 15.1 °F - 13.8 °F 95% 30.37 in 10.0 mi Calm Calm - N/A   Clear
3:55 AM 12.4 °F - 11.1 °F 95% 30.35 in 10.0 mi Calm Calm - N/A   Clear
4:55 AM 13.5 °F - 12.2 °F 95% 30.35 in 10.0 mi Calm Calm - N/A   Clear
5:55 AM 11.3 °F - 9.5 °F 92% 30.32 in 10.0 mi Calm Calm - N/A   Clear
6:55 AM 10.9 °F - 9.5 °F 94% 30.34 in 10.0 mi Calm Calm - N/A   Clear
7:55 AM 11.3 °F 3.3 °F 9.7 °F 93% 30.32 in 10.0 mi SE 4.6 mph - N/A   Clear
8:55 AM 17.4 °F 9.1 °F 14.5 °F 88% 30.32 in 10.0 mi SSE 5.8 mph - N/A   Clear
9:55 AM 21.9 °F 12.5 °F 14.9 °F 74% 30.31 in 10.0 mi SSE 8.1 mph - N/A   Clear
10:55 AM 28.4 °F 20.4 °F 12.7 °F 52% 30.30 in 10.0 mi SSW 8.1 mph - N/A   Overcast
11:55 AM 30.9 °F 22.8 °F 9.5 °F 41% 30.24 in 10.0 mi South 9.2 mph - N/A   Overcast
12:55 PM 34.9 °F 29.0 °F 8.6 °F 34% 30.18 in 10.0 mi South 6.9 mph 17.3 mph N/A   Scattered Clouds
1:55 PM 36.0 °F 29.0 °F 7.5 °F 31% 30.14 in 10.0 mi South 9.2 mph - N/A   Mostly Cloudy
2:55 PM 36.9 °F 32.2 °F 9.3 °F 32% 30.09 in 10.0 mi Variable 5.8 mph - N/A   Scattered Clouds
3:55 PM 37.0 °F 29.3 °F 11.8 °F 35% 30.04 in 10.0 mi South 11.5 mph - N/A   Scattered Clouds
4:55 PM 35.6 °F 30.7 °F 11.1 °F 36% 30.05 in 10.0 mi Variable 5.8 mph - N/A   Partly Cloudy
5:55 PM 34.2 °F 27.5 °F 12.4 °F 41% 30.04 in 10.0 mi SSW 8.1 mph - N/A   Clear
6:55 PM 31.8 °F 24.6 °F 15.8 °F 52% 30.04 in 10.0 mi South 8.1 mph - N/A   Clear
7:55 PM 31.3 °F 24.7 °F 15.6 °F 52% 30.02 in 10.0 mi South 6.9 mph - N/A   Clear
8:55 PM 31.5 °F 24.9 °F 15.8 °F 52% 30.03 in 10.0 mi South 6.9 mph - N/A   Partly Cloudy
9:55 PM 32.0 °F 24.8 °F 16.5 °F 53% 30.01 in 10.0 mi South 8.1 mph - N/A   Mostly Cloudy
10:55 PM 32.2 °F 26.7 °F 16.3 °F 52% 29.99 in 10.0 mi SSW 5.8 mph - N/A   Overcast
11:55 PM 31.5 °F 24.9 °F 16.3 °F 54% 29.99 in 10.0 mi SSW 6.9 mph - N/A   Clear